Time,TemperatureF,DewpointF,PressureIn,WindDirection,WindDirectionDegrees,WindSpeedMPH,WindSpeedGustMPH,Humidity,HourlyPrecipIn,Conditions,Clouds,dailyrainin,SoftwareType,DateUTC
2013-04-18 00:03:00,46.6,41.1,30.50,ESE,110,0.0,0.0,81,0.00,,,0.00,Wunderground v.1.15,2013-04-18 07:03:00,
2013-04-18 00:08:00,46.7,40.9,30.50,ESE,110,0.0,0.0,80,0.00,,,0.00,Wunderground v.1.15,2013-04-18 07:08:00,
2013-04-18 00:13:00,46.7,40.9,30.50,ESE,111,0.0,0.0,80,0.00,,,0.00,Wunderground v.1.15,2013-04-18 07:13:00,
2013-04-18 00:19:00,46.9,40.7,30.51,ESE,111,0.0,0.0,79,0.00,,,0.00,Wunderground v.1.15,2013-04-18 07:19:00,
2013-04-18 00:24:00,47.0,40.5,30.51,ESE,113,0.0,0.0,78,0.00,,,0.00,Wunderground v.1.15,2013-04-18 07:24:00,
2013-04-18 00:30:00,47.1,40.6,30.50,ESE,113,0.0,0.0,78,0.00,,,0.00,Wunderground v.1.15,2013-04-18 07:30:00,
2013-04-18 00:36:00,47.2,41.0,30.50,ESE,116,0.0,1.0,79,0.00,,,0.00,Wunderground v.1.15,2013-04-18 07:36:00,
2013-04-18 00:41:00,47.2,40.7,30.51,SE,136,0.0,0.0,78,0.00,,,0.00,Wunderground v.1.15,2013-04-18 07:41:00,
2013-04-18 00:47:00,47.1,40.3,30.51,SSW,203,0.0,1.0,77,0.00,,,0.00,Wunderground v.1.15,2013-04-18 07:47:00,
2013-04-18 00:52:00,46.9,40.1,30.51,SW,218,0.0,2.0,77,0.00,,,0.00,Wunderground v.1.15,2013-04-18 07:52:00,
2013-04-18 00:58:00,46.7,39.9,30.51,SW,222,1.0,3.0,77,0.00,,,0.00,Wunderground v.1.15,2013-04-18 07:58:00,
2013-04-18 01:04:00,46.5,39.3,30.51,SW,225,5.0,9.0,76,0.00,,,0.00,Wunderground v.1.15,2013-04-18 08:04:00,
2013-04-18 01:09:00,46.4,39.2,30.51,SSW,207,0.0,4.0,76,0.00,,,0.00,Wunderground v.1.15,2013-04-18 08:09:00,
2013-04-18 01:14:00,46.3,39.1,30.51,SSW,209,0.0,4.0,76,0.00,,,0.00,Wunderground v.1.15,2013-04-18 08:14:00,
2013-04-18 01:20:00,46.3,39.1,30.51,WSW,245,4.0,4.0,76,0.00,,,0.00,Wunderground v.1.15,2013-04-18 08:20:00,
2013-04-18 01:25:00,46.1,39.0,30.51,SW,225,3.0,9.0,76,0.00,,,0.00,Wunderground v.1.15,2013-04-18 08:25:00,
2013-04-18 01:31:00,46.0,38.5,30.51,South,183,2.0,3.0,75,0.00,,,0.00,Wunderground v.1.15,2013-04-18 08:31:00,
2013-04-18 01:36:00,45.9,38.8,30.51,SSW,202,4.0,4.0,76,0.00,,,0.00,Wunderground v.1.15,2013-04-18 08:36:00,
2013-04-18 01:42:00,45.8,38.3,30.52,SW,219,0.0,5.0,75,0.00,,,0.00,Wunderground v.1.15,2013-04-18 08:42:00,
2013-04-18 01:47:00,45.6,38.1,30.52,SW,223,0.0,5.0,75,0.00,,,0.00,Wunderground v.1.15,2013-04-18 08:47:00,
2013-04-18 01:53:00,45.6,38.1,30.52,SSW,209,0.0,2.0,75,0.00,,,0.00,Wunderground v.1.15,2013-04-18 08:53:00,
2013-04-18 01:59:00,45.5,38.0,30.52,SW,229,0.0,1.0,75,0.00,,,0.00,Wunderground v.1.15,2013-04-18 08:59:00,
2013-04-18 02:04:00,45.4,37.9,30.52,SSW,195,0.0,7.0,75,0.00,,,0.00,Wunderground v.1.15,2013-04-18 09:04:00,
2013-04-18 02:09:00,45.3,37.8,30.52,SSW,198,0.0,2.0,75,0.00,,,0.00,Wunderground v.1.15,2013-04-18 09:09:00,
2013-04-18 02:14:00,45.2,38.1,30.52,SSW,213,2.0,4.0,76,0.00,,,0.00,Wunderground v.1.15,2013-04-18 09:14:00,
2013-04-18 02:19:00,45.2,38.1,30.52,SSW,202,0.0,1.0,76,0.00,,,0.00,Wunderground v.1.15,2013-04-18 09:19:00,
2013-04-18 02:24:00,45.1,38.0,30.52,SW,227,0.0,6.0,76,0.00,,,0.00,Wunderground v.1.15,2013-04-18 09:24:00,
2013-04-18 02:29:00,45.0,37.9,30.51,South,188,2.0,9.0,76,0.00,,,0.00,Wunderground v.1.15,2013-04-18 09:29:00,
2013-04-18 02:35:00,44.9,37.8,30.51,SW,229,6.0,11.0,76,0.00,,,0.00,Wunderground v.1.15,2013-04-18 09:35:00,
2013-04-18 02:40:00,44.8,37.7,30.51,SSW,212,0.0,3.0,76,0.00,,,0.00,Wunderground v.1.15,2013-04-18 09:40:00,
2013-04-18 02:45:00,44.7,37.6,30.51,SW,219,2.0,7.0,76,0.00,,,0.00,Wunderground v.1.15,2013-04-18 09:45:00,
2013-04-18 02:50:00,44.6,37.8,30.51,SW,222,1.0,3.0,77,0.00,,,0.00,Wunderground v.1.15,2013-04-18 09:50:00,
2013-04-18 02:55:00,44.5,37.7,30.51,SSW,209,1.0,7.0,77,0.00,,,0.00,Wunderground v.1.15,2013-04-18 09:55:00,
2013-04-18 03:00:00,44.3,37.9,30.51,SW,214,1.0,5.0,78,0.00,,,0.00,Wunderground v.1.15,2013-04-18 10:00:00,
2013-04-18 03:05:00,44.2,37.8,30.51,SW,236,3.0,8.0,78,0.00,,,0.00,Wunderground v.1.15,2013-04-18 10:05:00,
2013-04-18 03:10:00,44.2,37.8,30.51,WSW,244,3.0,5.0,78,0.00,,,0.00,Wunderground v.1.15,2013-04-18 10:10:00,
2013-04-18 03:15:00,44.2,37.8,30.51,SSW,207,1.0,5.0,78,0.00,,,0.00,Wunderground v.1.15,2013-04-18 10:15:00,
2013-04-18 03:20:00,44.2,37.8,30.51,SSW,209,1.0,1.0,78,0.00,,,0.00,Wunderground v.1.15,2013-04-18 10:20:00,
2013-04-18 03:25:00,44.2,37.8,30.51,SSW,204,0.0,6.0,78,0.00,,,0.00,Wunderground v.1.15,2013-04-18 10:25:00,
2013-04-18 03:30:00,44.2,37.8,30.51,SSW,211,0.0,3.0,78,0.00,,,0.00,Wunderground v.1.15,2013-04-18 10:30:00,
2013-04-18 03:35:00,44.2,38.1,30.51,SSW,209,5.0,7.0,79,0.00,,,0.00,Wunderground v.1.15,2013-04-18 10:35:00,
2013-04-18 03:40:00,44.2,38.1,30.51,SSW,207,0.0,4.0,79,0.00,,,0.00,Wunderground v.1.15,2013-04-18 10:40:00,
2013-04-18 03:45:00,44.2,38.1,30.51,SW,215,1.0,4.0,79,0.00,,,0.00,Wunderground v.1.15,2013-04-18 10:45:00,
2013-04-18 03:50:00,44.2,38.1,30.51,SW,227,0.0,1.0,79,0.00,,,0.00,Wunderground v.1.15,2013-04-18 10:50:00,
2013-04-18 03:55:00,44.2,38.1,30.51,SSW,213,2.0,9.0,79,0.00,,,0.00,Wunderground v.1.15,2013-04-18 10:55:00,
2013-04-18 04:00:00,44.3,38.2,30.51,SW,222,0.0,7.0,79,0.00,,,0.00,Wunderground v.1.15,2013-04-18 11:00:00,
2013-04-18 04:05:00,44.3,38.2,30.51,SW,216,1.0,7.0,79,0.00,,,0.00,Wunderground v.1.15,2013-04-18 11:05:00,
2013-04-18 04:10:00,44.4,38.3,30.51,SW,224,0.0,1.0,79,0.00,,,0.00,Wunderground v.1.15,2013-04-18 11:10:00,
2013-04-18 04:15:00,44.5,38.4,30.52,South,190,1.0,5.0,79,0.00,,,0.00,Wunderground v.1.15,2013-04-18 11:15:00,
2013-04-18 04:20:00,44.5,38.4,30.51,SSW,211,0.0,1.0,79,0.00,,,0.00,Wunderground v.1.15,2013-04-18 11:20:00,
2013-04-18 04:25:00,44.5,38.4,30.51,SW,221,0.0,5.0,79,0.00,,,0.00,Wunderground v.1.15,2013-04-18 11:25:00,
2013-04-18 04:30:00,44.5,38.4,30.51,SSW,199,0.0,4.0,79,0.00,,,0.00,Wunderground v.1.15,2013-04-18 11:30:00,
2013-04-18 04:35:00,44.5,38.4,30.51,SSE,159,4.0,5.0,79,0.00,,,0.00,Wunderground v.1.15,2013-04-18 11:35:00,
2013-04-18 04:40:00,44.5,38.4,30.51,SSW,195,4.0,10.0,79,0.00,,,0.00,Wunderground v.1.15,2013-04-18 11:40:00,
2013-04-18 04:46:00,44.5,38.4,30.51,SSW,207,3.0,10.0,79,0.00,,,0.00,Wunderground v.1.15,2013-04-18 11:46:00,
2013-04-18 04:51:00,44.6,38.5,30.52,SSW,195,1.0,3.0,79,0.00,,,0.00,Wunderground v.1.15,2013-04-18 11:51:00,
2013-04-18 04:56:00,44.7,38.6,30.52,SSW,207,1.0,9.0,79,0.00,,,0.00,Wunderground v.1.15,2013-04-18 11:56:00,
2013-04-18 05:01:00,44.7,38.6,30.52,South,176,0.0,2.0,79,0.00,,,0.00,Wunderground v.1.15,2013-04-18 12:01:00,
2013-04-18 05:06:00,44.7,38.6,30.52,South,180,1.0,3.0,79,0.00,,,0.00,Wunderground v.1.15,2013-04-18 12:06:00,
2013-04-18 05:11:00,44.7,38.6,30.52,SSE,165,1.0,3.0,79,0.00,,,0.00,Wunderground v.1.15,2013-04-18 12:11:00,
2013-04-18 05:16:00,44.7,38.9,30.51,South,185,0.0,4.0,80,0.00,,,0.00,Wunderground v.1.15,2013-04-18 12:16:00,
2013-04-18 05:21:00,44.7,38.9,30.51,South,170,0.0,2.0,80,0.00,,,0.00,Wunderground v.1.15,2013-04-18 12:21:00,
2013-04-18 05:26:00,44.7,38.9,30.51,SSW,193,0.0,3.0,80,0.00,,,0.00,Wunderground v.1.15,2013-04-18 12:26:00,
2013-04-18 05:31:00,44.7,38.9,30.51,South,173,0.0,0.0,80,0.00,,,0.00,Wunderground v.1.15,2013-04-18 12:31:00,
2013-04-18 05:36:00,44.6,38.8,30.51,SSE,148,0.0,6.0,80,0.00,,,0.00,Wunderground v.1.15,2013-04-18 12:36:00,
2013-04-18 05:41:00,44.6,38.8,30.51,SSE,159,0.0,1.0,80,0.00,,,0.00,Wunderground v.1.15,2013-04-18 12:41:00,
2013-04-18 05:46:00,44.7,38.9,30.51,South,175,0.0,1.0,80,0.00,,,0.00,Wunderground v.1.15,2013-04-18 12:46:00,
2013-04-18 05:51:00,44.6,38.8,30.51,SSE,165,0.0,1.0,80,0.00,,,0.00,Wunderground v.1.15,2013-04-18 12:51:00,
2013-04-18 05:56:00,44.7,38.9,30.51,South,182,0.0,1.0,80,0.00,,,0.00,Wunderground v.1.15,2013-04-18 12:56:00,
2013-04-18 06:01:00,44.6,38.8,30.51,SSE,159,0.0,5.0,80,0.00,,,0.00,Wunderground v.1.15,2013-04-18 13:01:00,
2013-04-18 06:06:00,44.6,39.1,30.51,SSE,147,0.0,5.0,81,0.00,,,0.00,Wunderground v.1.15,2013-04-18 13:06:00,
2013-04-18 06:11:00,44.6,39.1,30.51,SSE,157,0.0,1.0,81,0.00,,,0.00,Wunderground v.1.15,2013-04-18 13:11:00,
2013-04-18 06:16:00,44.6,39.1,30.51,SE,124,0.0,1.0,81,0.00,,,0.00,Wunderground v.1.15,2013-04-18 13:16:00,
2013-04-18 06:21:00,44.6,39.1,30.51,SSE,164,0.0,4.0,81,0.00,,,0.00,Wunderground v.1.15,2013-04-18 13:21:00,
2013-04-18 06:26:00,44.6,39.1,30.51,South,169,0.0,4.0,81,0.00,,,0.00,Wunderground v.1.15,2013-04-18 13:26:00,
2013-04-18 06:31:00,44.6,39.1,30.51,South,169,0.0,1.0,81,0.00,,,0.00,Wunderground v.1.15,2013-04-18 13:31:00,
2013-04-18 06:36:00,44.7,39.2,30.51,South,170,0.0,1.0,81,0.00,,,0.00,Wunderground v.1.15,2013-04-18 13:36:00,
2013-04-18 06:41:00,44.6,39.1,30.51,SSE,161,0.0,4.0,81,0.00,,,0.00,Wunderground v.1.15,2013-04-18 13:41:00,
2013-04-18 06:46:00,44.6,39.1,30.51,SSE,162,0.0,4.0,81,0.00,,,0.00,Wunderground v.1.15,2013-04-18 13:46:00,
2013-04-18 06:51:00,44.6,39.1,30.51,South,185,0.0,1.0,81,0.00,,,0.00,Wunderground v.1.15,2013-04-18 13:51:00,
2013-04-18 06:56:00,44.6,39.4,30.51,SSE,159,0.0,3.0,82,0.00,,,0.00,Wunderground v.1.15,2013-04-18 13:56:00,
2013-04-18 07:01:00,44.6,39.4,30.51,SSE,158,0.0,6.0,82,0.00,,,0.00,Wunderground v.1.15,2013-04-18 14:01:00,
2013-04-18 07:06:00,44.5,39.3,30.51,SE,143,4.0,6.0,82,0.00,,,0.00,Wunderground v.1.15,2013-04-18 14:06:00,
2013-04-18 07:11:00,44.5,39.7,30.51,South,181,3.0,3.0,83,0.00,,,0.00,Wunderground v.1.15,2013-04-18 14:11:00,
2013-04-18 07:17:00,44.4,39.6,30.51,SE,141,0.0,4.0,83,0.00,,,0.00,Wunderground v.1.15,2013-04-18 14:17:00,
2013-04-18 07:22:00,44.5,39.3,30.51,SE,142,0.0,5.0,82,0.00,,,0.00,Wunderground v.1.15,2013-04-18 14:22:00,
2013-04-18 07:27:00,44.4,39.6,30.52,SSE,157,0.0,9.0,83,0.00,,,0.00,Wunderground v.1.15,2013-04-18 14:27:00,
2013-04-18 07:32:00,44.4,39.6,30.52,SSE,152,0.0,4.0,83,0.00,,,0.00,Wunderground v.1.15,2013-04-18 14:32:00,
2013-04-18 07:37:00,44.4,39.6,30.51,SSE,162,0.0,5.0,83,0.00,,,0.00,Wunderground v.1.15,2013-04-18 14:37:00,
2013-04-18 07:42:00,44.5,39.7,30.51,SSE,165,0.0,1.0,83,0.00,,,0.00,Wunderground v.1.15,2013-04-18 14:42:00,
2013-04-18 07:47:00,44.5,39.7,30.51,South,169,0.0,5.0,83,0.00,,,0.00,Wunderground v.1.15,2013-04-18 14:47:00,
2013-04-18 07:52:00,44.6,39.8,30.51,South,169,0.0,3.0,83,0.00,,,0.00,Wunderground v.1.15,2013-04-18 14:52:00,
2013-04-18 07:57:00,44.7,39.9,30.52,South,186,2.0,4.0,83,0.00,,,0.00,Wunderground v.1.15,2013-04-18 14:57:00,
2013-04-18 08:02:00,44.7,39.5,30.52,South,171,0.0,6.0,82,0.00,,,0.00,Wunderground v.1.15,2013-04-18 15:02:00,
2013-04-18 08:07:00,44.8,39.6,30.52,SSE,168,1.0,6.0,82,0.00,,,0.00,Wunderground v.1.15,2013-04-18 15:07:00,
2013-04-18 08:12:00,44.9,39.7,30.52,SW,217,0.0,6.0,82,0.00,,,0.00,Wunderground v.1.15,2013-04-18 15:12:00,
2013-04-18 08:17:00,45.0,39.8,30.52,South,174,0.0,6.0,82,0.00,,,0.00,Wunderground v.1.15,2013-04-18 15:17:00,
2013-04-18 08:22:00,44.9,39.7,30.52,SW,215,4.0,7.0,82,0.00,,,0.00,Wunderground v.1.15,2013-04-18 15:22:00,
2013-04-18 08:27:00,45.0,39.8,30.52,SSW,211,6.0,7.0,82,0.00,,,0.00,Wunderground v.1.15,2013-04-18 15:27:00,
2013-04-18 08:32:00,45.0,39.8,30.52,SSW,209,2.0,4.0,82,0.00,,,0.00,Wunderground v.1.15,2013-04-18 15:32:00,
2013-04-18 08:37:00,45.1,39.9,30.52,SSW,198,1.0,6.0,82,0.00,,,0.00,Wunderground v.1.15,2013-04-18 15:37:00,
2013-04-18 08:42:00,45.1,39.9,30.52,SSW,201,6.0,6.0,82,0.00,,,0.00,Wunderground v.1.15,2013-04-18 15:42:00,
2013-04-18 08:47:00,45.1,39.9,30.52,South,184,0.0,6.0,82,0.00,,,0.00,Wunderground v.1.15,2013-04-18 15:47:00,
2013-04-18 08:52:00,45.1,39.9,30.52,SW,227,1.0,5.0,82,0.00,,,0.00,Wunderground v.1.15,2013-04-18 15:52:00,
2013-04-18 08:57:00,45.1,39.9,30.52,SSW,202,4.0,7.0,82,0.00,,,0.00,Wunderground v.1.15,2013-04-18 15:57:00,
2013-04-18 09:02:00,45.1,39.6,30.52,WSW,238,4.0,11.0,81,0.00,,,0.00,Wunderground v.1.15,2013-04-18 16:02:00,
2013-04-18 09:07:00,45.2,39.7,30.52,South,173,1.0,11.0,81,0.00,,,0.00,Wunderground v.1.15,2013-04-18 16:07:00,
2013-04-18 09:12:00,45.2,39.7,30.53,South,189,1.0,9.0,81,0.00,,,0.00,Wunderground v.1.15,2013-04-18 16:12:00,
2013-04-18 09:17:00,45.3,39.8,30.52,SSW,195,2.0,9.0,81,0.00,,,0.00,Wunderground v.1.15,2013-04-18 16:17:00,
2013-04-18 09:22:00,45.4,39.9,30.52,SSW,197,9.0,10.0,81,0.00,,,0.00,Wunderground v.1.15,2013-04-18 16:22:00,
2013-04-18 09:27:00,45.6,40.1,30.52,SSW,196,2.0,10.0,81,0.00,,,0.00,Wunderground v.1.15,2013-04-18 16:27:00,
2013-04-18 09:32:00,45.9,40.4,30.52,SSW,207,0.0,5.0,81,0.00,,,0.00,Wunderground v.1.15,2013-04-18 16:32:00,
2013-04-18 09:37:00,46.0,40.2,30.53,SSW,213,5.0,7.0,80,0.00,,,0.00,Wunderground v.1.15,2013-04-18 16:37:00,
2013-04-18 09:42:00,46.0,40.2,30.52,SW,215,7.0,7.0,80,0.00,,,0.00,Wunderground v.1.15,2013-04-18 16:42:00,
2013-04-18 09:47:00,45.8,40.0,30.53,SSE,168,2.0,9.0,80,0.00,,,0.00,Wunderground v.1.15,2013-04-18 16:47:00,
2013-04-18 09:52:00,45.8,40.0,30.53,SW,217,6.0,7.0,80,0.00,,,0.00,Wunderground v.1.15,2013-04-18 16:52:00,
2013-04-18 09:57:00,45.8,40.0,30.53,SW,232,5.0,7.0,80,0.00,,,0.00,Wunderground v.1.15,2013-04-18 16:57:00,
2013-04-18 10:02:00,45.9,40.4,30.52,SSW,192,1.0,11.0,81,0.00,,,0.00,Wunderground v.1.15,2013-04-18 17:02:00,
2013-04-18 10:07:00,45.8,40.3,30.53,SW,221,6.0,11.0,81,0.00,,,0.00,Wunderground v.1.15,2013-04-18 17:07:00,
2013-04-18 10:12:00,45.8,40.3,30.52,SSW,196,2.0,11.0,81,0.00,,,0.00,Wunderground v.1.15,2013-04-18 17:12:00,
2013-04-18 10:17:00,45.9,40.4,30.53,SW,217,1.0,11.0,81,0.00,,,0.00,Wunderground v.1.15,2013-04-18 17:17:00,
2013-04-18 10:22:00,46.0,40.5,30.53,SSW,201,2.0,9.0,81,0.00,,,0.00,Wunderground v.1.15,2013-04-18 17:22:00,
2013-04-18 10:27:00,46.0,40.5,30.52,SSW,202,4.0,13.0,81,0.00,,,0.00,Wunderground v.1.15,2013-04-18 17:27:00,
2013-04-18 10:32:00,46.1,40.9,30.53,SSW,208,9.0,9.0,82,0.00,,,0.00,Wunderground v.1.15,2013-04-18 17:32:00,
2013-04-18 10:37:00,46.0,40.8,30.52,SSW,192,4.0,13.0,82,0.00,,,0.00,Wunderground v.1.15,2013-04-18 17:37:00,
2013-04-18 10:42:00,45.9,40.7,30.52,SW,232,6.0,9.0,82,0.00,,,0.00,Wunderground v.1.15,2013-04-18 17:42:00,
2013-04-18 10:47:00,46.1,40.9,30.52,South,180,0.0,10.0,82,0.00,,,0.00,Wunderground v.1.15,2013-04-18 17:47:00,
2013-04-18 10:52:00,46.5,41.0,30.52,SSW,213,0.0,5.0,81,0.00,,,0.00,Wunderground v.1.15,2013-04-18 17:52:00,
2013-04-18 10:57:00,46.6,41.1,30.52,South,188,2.0,7.0,81,0.00,,,0.00,Wunderground v.1.15,2013-04-18 17:57:00,
2013-04-18 11:02:00,46.7,40.9,30.52,SSE,151,4.0,5.0,80,0.00,,,0.00,Wunderground v.1.15,2013-04-18 18:02:00,
2013-04-18 11:07:00,46.8,41.0,30.52,South,188,1.0,5.0,80,0.00,,,0.00,Wunderground v.1.15,2013-04-18 18:07:00,
2013-04-18 11:13:00,46.8,40.6,30.51,SSE,157,5.0,5.0,79,0.00,,,0.00,Wunderground v.1.15,2013-04-18 18:13:00,
2013-04-18 11:18:00,47.0,40.8,30.52,SSW,211,1.0,5.0,79,0.00,,,0.00,Wunderground v.1.15,2013-04-18 18:18:00,
2013-04-18 11:23:00,47.1,40.9,30.51,SSE,158,2.0,4.0,79,0.00,,,0.00,Wunderground v.1.15,2013-04-18 18:23:00,
2013-04-18 11:28:00,47.2,40.7,30.52,SW,219,2.0,8.0,78,0.00,,,0.00,Wunderground v.1.15,2013-04-18 18:28:00,
2013-04-18 11:33:00,47.3,40.8,30.52,SSW,202,0.0,5.0,78,0.00,,,0.00,Wunderground v.1.15,2013-04-18 18:33:00,
2013-04-18 11:38:00,47.3,40.8,30.51,SSW,197,3.0,7.0,78,0.00,,,0.00,Wunderground v.1.15,2013-04-18 18:38:00,
2013-04-18 11:43:00,47.3,40.8,30.51,SSW,203,2.0,4.0,78,0.00,,,0.00,Wunderground v.1.15,2013-04-18 18:43:00,
2013-04-18 11:48:00,47.4,40.9,30.51,South,188,1.0,6.0,78,0.00,,,0.00,Wunderground v.1.15,2013-04-18 18:48:00,
2013-04-18 11:53:00,47.5,41.0,30.51,SSE,159,1.0,6.0,78,0.00,,,0.00,Wunderground v.1.15,2013-04-18 18:53:00,
2013-04-18 11:58:00,47.6,41.1,30.51,South,182,1.0,8.0,78,0.00,,,0.00,Wunderground v.1.15,2013-04-18 18:58:00,
2013-04-18 12:03:00,47.7,41.2,30.51,SSW,205,4.0,6.0,78,0.00,,,0.00,Wunderground v.1.15,2013-04-18 19:03:00,
2013-04-18 12:08:00,47.9,41.4,30.51,SSW,209,4.0,6.0,78,0.00,,,0.00,Wunderground v.1.15,2013-04-18 19:08:00,
2013-04-18 12:13:00,48.1,41.2,30.50,SSE,165,2.0,5.0,77,0.00,,,0.00,Wunderground v.1.15,2013-04-18 19:13:00,
2013-04-18 12:18:00,48.1,41.2,30.50,South,187,5.0,5.0,77,0.00,,,0.00,Wunderground v.1.15,2013-04-18 19:18:00,
2013-04-18 12:23:00,48.2,41.3,30.50,SSE,167,0.0,6.0,77,0.00,,,0.00,Wunderground v.1.15,2013-04-18 19:23:00,
2013-04-18 12:28:00,48.4,41.2,30.50,South,184,0.0,6.0,76,0.00,,,0.00,Wunderground v.1.15,2013-04-18 19:28:00,
2013-04-18 12:33:00,48.4,41.2,30.50,SE,138,5.0,9.0,76,0.00,,,0.00,Wunderground v.1.15,2013-04-18 19:33:00,
2013-04-18 12:38:00,48.5,41.3,30.50,South,181,1.0,9.0,76,0.00,,,0.00,Wunderground v.1.15,2013-04-18 19:38:00,
2013-04-18 12:43:00,48.5,41.3,30.49,South,182,0.0,4.0,76,0.00,,,0.00,Wunderground v.1.15,2013-04-18 19:43:00,
2013-04-18 12:49:00,48.5,41.3,30.49,SSW,196,0.0,7.0,76,0.00,,,0.00,Wunderground v.1.15,2013-04-18 19:49:00,
2013-04-18 12:54:00,48.7,41.5,30.49,South,188,0.0,4.0,76,0.00,,,0.00,Wunderground v.1.15,2013-04-18 19:54:00,
2013-04-18 12:59:00,48.9,41.7,30.49,South,171,0.0,5.0,76,0.00,,,0.00,Wunderground v.1.15,2013-04-18 19:59:00,
2013-04-18 13:04:00,49.0,41.8,30.49,South,174,0.0,4.0,76,0.00,,,0.00,Wunderground v.1.15,2013-04-18 20:04:00,
2013-04-18 13:09:00,49.0,41.8,30.49,South,178,1.0,5.0,76,0.00,,,0.00,Wunderground v.1.15,2013-04-18 20:09:00,
2013-04-18 13:14:00,49.1,41.5,30.49,SW,217,4.0,10.0,75,0.00,,,0.00,Wunderground v.1.15,2013-04-18 20:14:00,
2013-04-18 13:19:00,49.2,41.6,30.49,SSW,198,1.0,10.0,75,0.00,,,0.00,Wunderground v.1.15,2013-04-18 20:19:00,
2013-04-18 13:24:00,49.2,41.6,30.48,SSE,150,3.0,4.0,75,0.00,,,0.00,Wunderground v.1.15,2013-04-18 20:24:00,
2013-04-18 13:29:00,49.3,41.7,30.48,SSE,159,0.0,4.0,75,0.00,,,0.00,Wunderground v.1.15,2013-04-18 20:29:00,
2013-04-18 13:34:00,49.4,41.8,30.48,SSW,195,0.0,4.0,75,0.00,,,0.00,Wunderground v.1.15,2013-04-18 20:34:00,
2013-04-18 13:39:00,49.5,41.9,30.48,South,191,1.0,7.0,75,0.00,,,0.00,Wunderground v.1.15,2013-04-18 20:39:00,
2013-04-18 13:44:00,49.6,42.0,30.48,SW,227,0.0,5.0,75,0.00,,,0.00,Wunderground v.1.15,2013-04-18 20:44:00,
2013-04-18 13:49:00,49.8,42.2,30.48,South,190,1.0,5.0,75,0.00,,,0.00,Wunderground v.1.15,2013-04-18 20:49:00,
2013-04-18 13:54:00,50.1,42.5,30.47,SSE,163,0.0,2.0,75,0.00,,,0.00,Wunderground v.1.15,2013-04-18 20:54:00,
2013-04-18 13:59:00,50.1,42.1,30.47,South,184,0.0,6.0,74,0.00,,,0.00,Wunderground v.1.15,2013-04-18 20:59:00,
2013-04-18 14:04:00,50.4,42.4,30.47,SSW,195,0.0,3.0,74,0.00,,,0.00,Wunderground v.1.15,2013-04-18 21:04:00,
2013-04-18 14:09:00,50.5,42.5,30.47,SSE,164,1.0,4.0,74,0.00,,,0.00,Wunderground v.1.15,2013-04-18 21:09:00,
2013-04-18 14:14:00,50.5,42.5,30.47,SSW,193,5.0,5.0,74,0.00,,,0.00,Wunderground v.1.15,2013-04-18 21:14:00,
2013-04-18 14:18:00,50.4,42.4,30.47,SSW,198,0.0,5.0,74,0.00,,,0.00,Wunderground v.1.15,2013-04-18 21:18:00,
2013-04-18 14:24:00,50.4,42.4,30.47,SSE,167,2.0,4.0,74,0.00,,,0.00,Wunderground v.1.15,2013-04-18 21:24:00,
2013-04-18 14:29:00,50.4,42.8,30.47,South,187,0.0,4.0,75,0.00,,,0.00,Wunderground v.1.15,2013-04-18 21:29:00,
2013-04-18 14:34:00,50.4,43.1,30.47,SSW,193,0.0,1.0,76,0.00,,,0.00,Wunderground v.1.15,2013-04-18 21:34:00,
2013-04-18 14:39:00,50.4,43.5,30.46,South,190,0.0,4.0,77,0.00,,,0.00,Wunderground v.1.15,2013-04-18 21:39:00,
2013-04-18 14:44:00,50.4,43.5,30.46,South,180,0.0,3.0,77,0.00,,,0.00,Wunderground v.1.15,2013-04-18 21:44:00,
2013-04-18 14:49:00,50.4,43.5,30.46,SSW,193,1.0,5.0,77,0.00,,,0.00,Wunderground v.1.15,2013-04-18 21:49:00,
2013-04-18 14:54:00,50.3,43.7,30.46,SSW,192,4.0,4.0,78,0.00,,,0.00,Wunderground v.1.15,2013-04-18 21:54:00,
2013-04-18 14:59:00,50.2,43.9,30.45,SSW,202,3.0,4.0,79,0.00,,,0.00,Wunderground v.1.15,2013-04-18 21:59:00,
2013-04-18 15:04:00,50.1,44.2,30.45,SSE,161,6.0,6.0,80,0.00,,,0.00,Wunderground v.1.15,2013-04-18 22:04:00,
2013-04-18 15:09:00,49.8,43.9,30.45,SSW,205,0.0,10.0,80,0.00,,,0.00,Wunderground v.1.15,2013-04-18 22:09:00,
2013-04-18 15:14:00,49.6,43.7,30.45,SW,216,7.0,11.0,80,0.00,,,0.00,Wunderground v.1.15,2013-04-18 22:14:00,
2013-04-18 15:19:00,49.6,44.0,30.45,SSW,211,5.0,5.0,81,0.00,,,0.01,Wunderground v.1.15,2013-04-18 22:19:00,
2013-04-18 15:24:00,49.5,43.9,30.45,SW,215,4.0,9.0,81,0.00,,,0.01,Wunderground v.1.15,2013-04-18 22:24:00,
2013-04-18 15:29:00,49.5,44.2,30.44,SSW,211,2.0,3.0,82,0.00,,,0.01,Wunderground v.1.15,2013-04-18 22:29:00,
2013-04-18 15:34:00,49.4,44.1,30.44,SSE,167,1.0,5.0,82,0.00,,,0.01,Wunderground v.1.15,2013-04-18 22:34:00,
2013-04-18 15:39:00,49.3,44.0,30.44,SSW,194,0.0,2.0,82,0.00,,,0.01,Wunderground v.1.15,2013-04-18 22:39:00,
2013-04-18 15:44:00,49.3,44.4,30.44,South,183,0.0,4.0,83,0.00,,,0.01,Wunderground v.1.15,2013-04-18 22:44:00,
2013-04-18 15:49:00,49.3,44.7,30.44,SSW,206,1.0,1.0,84,0.00,,,0.01,Wunderground v.1.15,2013-04-18 22:49:00,
2013-04-18 15:54:00,49.2,44.6,30.44,South,181,0.0,2.0,84,0.00,,,0.02,Wunderground v.1.15,2013-04-18 22:54:00,
2013-04-18 15:59:00,49.2,44.9,30.44,SW,215,3.0,4.0,85,0.00,,,0.02,Wunderground v.1.15,2013-04-18 22:59:00,
2013-04-18 16:04:00,49.3,45.0,30.43,SSW,198,0.0,4.0,85,0.00,,,0.02,Wunderground v.1.15,2013-04-18 23:04:00,
2013-04-18 16:09:00,49.3,45.3,30.43,South,174,0.0,0.0,86,0.00,,,0.02,Wunderground v.1.15,2013-04-18 23:09:00,
2013-04-18 16:14:00,49.4,45.4,30.43,South,173,0.0,0.0,86,0.00,,,0.03,Wunderground v.1.15,2013-04-18 23:14:00,
2013-04-18 16:19:00,49.5,45.5,30.42,SSE,161,0.0,0.0,86,0.00,,,0.03,Wunderground v.1.15,2013-04-18 23:19:00,
2013-04-18 16:24:00,49.4,45.4,30.42,SSW,200,0.0,0.0,86,0.00,,,0.03,Wunderground v.1.15,2013-04-18 23:24:00,
2013-04-18 16:29:00,49.3,45.6,30.42,SSW,195,0.0,0.0,87,0.00,,,0.03,Wunderground v.1.15,2013-04-18 23:29:00,
2013-04-18 16:34:00,49.3,45.9,30.42,SSW,194,0.0,0.0,88,0.00,,,0.04,Wunderground v.1.15,2013-04-18 23:34:00,
2013-04-18 16:39:00,49.2,45.5,30.42,SSW,196,0.0,0.0,87,0.00,,,0.04,Wunderground v.1.15,2013-04-18 23:39:00,
2013-04-18 16:44:00,49.2,45.5,30.42,SSW,204,0.0,5.0,87,0.00,,,0.04,Wunderground v.1.15,2013-04-18 23:44:00,
2013-04-18 16:49:00,49.2,45.5,30.42,SSW,193,0.0,2.0,87,0.00,,,0.04,Wunderground v.1.15,2013-04-18 23:49:00,
2013-04-18 16:54:00,49.2,45.8,30.41,SSW,192,0.0,2.0,88,0.00,,,0.05,Wunderground v.1.15,2013-04-18 23:54:00,
2013-04-18 16:59:00,49.2,45.8,30.41,South,188,0.0,0.0,88,0.00,,,0.05,Wunderground v.1.15,2013-04-18 23:59:00,
2013-04-18 17:04:00,49.3,46.2,30.41,South,172,0.0,1.0,89,0.00,,,0.05,Wunderground v.1.15,2013-04-19 00:04:00,
2013-04-18 17:09:00,49.2,46.1,30.41,South,170,0.0,0.0,89,0.04,,,0.06,Wunderground v.1.15,2013-04-19 00:09:00,
2013-04-18 17:14:00,49.4,46.3,30.41,South,171,0.0,0.0,89,0.04,,,0.06,Wunderground v.1.15,2013-04-19 00:14:00,
2013-04-18 17:19:00,49.4,46.3,30.41,South,169,0.0,0.0,89,0.04,,,0.06,Wunderground v.1.15,2013-04-19 00:19:00,
2013-04-18 17:24:00,49.3,46.2,30.41,SSE,167,0.0,2.0,89,0.00,,,0.06,Wunderground v.1.15,2013-04-19 00:24:00,
2013-04-18 17:29:00,49.3,46.2,30.41,SSE,167,0.0,0.0,89,0.00,,,0.07,Wunderground v.1.15,2013-04-19 00:29:00,
2013-04-18 17:34:00,49.4,46.6,30.41,SSE,167,0.0,0.0,90,0.00,,,0.07,Wunderground v.1.15,2013-04-19 00:34:00,
2013-04-18 17:39:00,49.4,46.6,30.40,SSE,168,0.0,0.0,90,0.00,,,0.07,Wunderground v.1.15,2013-04-19 00:39:00,
2013-04-18 17:44:00,49.4,46.6,30.40,SSE,167,0.0,0.0,90,0.00,,,0.08,Wunderground v.1.15,2013-04-19 00:44:00,
2013-04-18 17:49:00,49.3,46.5,30.40,SE,146,1.0,2.0,90,0.00,,,0.08,Wunderground v.1.15,2013-04-19 00:49:00,
2013-04-18 17:54:00,49.2,46.4,30.40,SSE,148,0.0,2.0,90,0.08,,,0.09,Wunderground v.1.15,2013-04-19 00:54:00,
2013-04-18 18:00:00,49.3,46.8,30.40,South,179,0.0,2.0,91,0.06,,,0.09,Wunderground v.1.15,2013-04-19 01:00:00,
2013-04-18 18:05:00,49.2,46.4,30.40,SSE,161,0.0,3.0,90,0.06,,,0.10,Wunderground v.1.15,2013-04-19 01:05:00,
2013-04-18 18:10:00,49.2,46.4,30.40,SSW,193,2.0,2.0,90,0.06,,,0.10,Wunderground v.1.15,2013-04-19 01:10:00,
2013-04-18 18:15:00,49.2,46.4,30.40,SSE,151,2.0,4.0,90,0.04,,,0.10,Wunderground v.1.15,2013-04-19 01:15:00,
2013-04-18 18:20:00,49.2,46.4,30.39,SSW,207,1.0,3.0,90,0.00,,,0.10,Wunderground v.1.15,2013-04-19 01:20:00,
2013-04-18 18:25:00,49.2,46.4,30.39,South,179,0.0,4.0,90,0.00,,,0.11,Wunderground v.1.15,2013-04-19 01:25:00,
2013-04-18 18:30:00,49.2,46.4,30.39,South,182,1.0,4.0,90,0.00,,,0.11,Wunderground v.1.15,2013-04-19 01:30:00,
2013-04-18 18:35:00,49.2,46.4,30.38,SSW,193,1.0,4.0,90,0.04,,,0.12,Wunderground v.1.15,2013-04-19 01:35:00,
2013-04-18 18:40:00,49.3,46.5,30.38,South,184,0.0,4.0,90,0.04,,,0.12,Wunderground v.1.15,2013-04-19 01:40:00,
2013-04-18 18:45:00,49.3,46.5,30.38,South,172,4.0,7.0,90,0.05,,,0.12,Wunderground v.1.15,2013-04-19 01:45:00,
2013-04-18 18:50:00,49.3,46.5,30.38,SSE,149,0.0,5.0,90,0.05,,,0.13,Wunderground v.1.15,2013-04-19 01:50:00,
2013-04-18 18:55:00,49.4,46.6,30.38,South,178,3.0,5.0,90,0.05,,,0.13,Wunderground v.1.15,2013-04-19 01:55:00,
2013-04-18 19:00:00,49.5,46.7,30.38,South,178,1.0,4.0,90,0.04,,,0.14,Wunderground v.1.15,2013-04-19 02:00:00,
2013-04-18 19:05:00,49.5,46.7,30.37,ESE,121,4.0,6.0,90,0.04,,,0.14,Wunderground v.1.15,2013-04-19 02:05:00,
2013-04-18 19:10:00,49.5,46.7,30.37,SW,223,0.0,3.0,90,0.04,,,0.14,Wunderground v.1.15,2013-04-19 02:10:00,
2013-04-18 19:15:00,49.5,46.7,30.37,SSE,153,5.0,7.0,90,0.04,,,0.14,Wunderground v.1.15,2013-04-19 02:15:00,
2013-04-18 19:20:00,49.5,46.7,30.37,SSE,157,1.0,5.0,90,0.00,,,0.15,Wunderground v.1.15,2013-04-19 02:20:00,
2013-04-18 19:25:00,49.5,46.7,30.36,SSW,196,3.0,6.0,90,0.00,,,0.15,Wunderground v.1.15,2013-04-19 02:25:00,
2013-04-18 19:30:00,49.5,47.0,30.36,South,178,1.0,7.0,91,0.00,,,0.15,Wunderground v.1.15,2013-04-19 02:30:00,
2013-04-18 19:35:00,49.4,46.9,30.36,South,182,2.0,7.0,91,0.00,,,0.15,Wunderground v.1.15,2013-04-19 02:35:00,
2013-04-18 19:41:00,49.4,46.9,30.36,SE,136,0.0,2.0,91,0.00,,,0.15,Wunderground v.1.15,2013-04-19 02:41:00,
2013-04-18 19:46:00,49.4,46.9,30.36,SSW,203,3.0,6.0,91,0.00,,,0.16,Wunderground v.1.15,2013-04-19 02:46:00,
2013-04-18 19:51:00,49.4,46.9,30.36,SW,221,4.0,4.0,91,0.00,,,0.16,Wunderground v.1.15,2013-04-19 02:51:00,
2013-04-18 19:56:00,49.3,46.8,30.35,SSW,202,3.0,8.0,91,0.06,,,0.17,Wunderground v.1.15,2013-04-19 02:56:00,
2013-04-18 20:01:00,49.3,46.8,30.35,South,187,1.0,8.0,91,0.06,,,0.17,Wunderground v.1.15,2013-04-19 03:01:00,
2013-04-18 20:06:00,49.3,46.8,30.35,South,175,5.0,9.0,91,0.07,,,0.18,Wunderground v.1.15,2013-04-19 03:06:00,
2013-04-18 20:11:00,49.3,46.8,30.35,SSE,150,3.0,8.0,91,0.06,,,0.18,Wunderground v.1.15,2013-04-19 03:11:00,
2013-04-18 20:16:00,49.2,46.7,30.35,South,179,2.0,11.0,91,0.04,,,0.18,Wunderground v.1.15,2013-04-19 03:16:00,
2013-04-18 20:21:00,49.3,46.8,30.35,SSE,155,4.0,9.0,91,0.00,,,0.18,Wunderground v.1.15,2013-04-19 03:21:00,
2013-04-18 20:26:00,49.3,46.8,30.35,SSW,200,3.0,11.0,91,0.00,,,0.18,Wunderground v.1.15,2013-04-19 03:26:00,
2013-04-18 20:31:00,49.3,46.8,30.35,South,174,2.0,9.0,91,0.00,,,0.18,Wunderground v.1.15,2013-04-19 03:31:00,
2013-04-18 20:36:00,49.3,46.8,30.35,South,190,2.0,10.0,91,0.00,,,0.18,Wunderground v.1.15,2013-04-19 03:36:00,
2013-04-18 20:41:00,49.4,46.9,30.35,SW,214,4.0,9.0,91,0.00,,,0.18,Wunderground v.1.15,2013-04-19 03:41:00,
2013-04-18 20:46:00,49.4,46.9,30.35,South,187,1.0,9.0,91,0.00,,,0.18,Wunderground v.1.15,2013-04-19 03:46:00,
2013-04-18 20:51:00,49.4,46.9,30.35,South,180,2.0,9.0,91,0.00,,,0.18,Wunderground v.1.15,2013-04-19 03:51:00,
2013-04-18 20:56:00,49.4,46.9,30.34,SSW,194,0.0,9.0,91,0.00,,,0.18,Wunderground v.1.15,2013-04-19 03:56:00,
2013-04-18 21:01:00,49.4,46.9,30.34,SW,236,4.0,12.0,91,0.00,,,0.19,Wunderground v.1.15,2013-04-19 04:01:00,
2013-04-18 21:06:00,49.3,46.8,30.34,South,178,2.0,12.0,91,0.00,,,0.19,Wunderground v.1.15,2013-04-19 04:06:00,
2013-04-18 21:12:00,49.3,46.8,30.34,SSW,193,2.0,5.0,91,0.00,,,0.19,Wunderground v.1.15,2013-04-19 04:12:00,
2013-04-18 21:17:00,49.3,46.8,30.34,SSW,205,3.0,8.0,91,0.00,,,0.19,Wunderground v.1.15,2013-04-19 04:17:00,
2013-04-18 21:22:00,49.3,46.8,30.34,SSE,164,2.0,6.0,91,0.00,,,0.19,Wunderground v.1.15,2013-04-19 04:22:00,
2013-04-18 21:27:00,49.2,46.7,30.34,SSW,196,7.0,10.0,91,0.00,,,0.19,Wunderground v.1.15,2013-04-19 04:27:00,
2013-04-18 21:32:00,49.2,46.7,30.34,SSE,167,1.0,9.0,91,0.00,,,0.19,Wunderground v.1.15,2013-04-19 04:32:00,
2013-04-18 21:37:00,49.2,46.7,30.34,SW,215,1.0,9.0,91,0.00,,,0.19,Wunderground v.1.15,2013-04-19 04:37:00,
2013-04-18 21:42:00,49.2,46.7,30.34,SSW,195,1.0,11.0,91,0.00,,,0.19,Wunderground v.1.15,2013-04-19 04:42:00,
2013-04-18 21:47:00,49.2,46.7,30.33,South,182,0.0,11.0,91,0.00,,,0.19,Wunderground v.1.15,2013-04-19 04:47:00,
2013-04-18 21:52:00,49.2,46.7,30.33,SSW,198,5.0,9.0,91,0.00,,,0.19,Wunderground v.1.15,2013-04-19 04:52:00,
2013-04-18 21:57:00,49.3,46.8,30.33,SE,144,2.0,9.0,91,0.00,,,0.19,Wunderground v.1.15,2013-04-19 04:57:00,
2013-04-18 22:02:00,49.3,46.8,30.32,SSW,207,0.0,6.0,91,0.00,,,0.19,Wunderground v.1.15,2013-04-19 05:02:00,
2013-04-18 22:07:00,49.4,46.9,30.32,SSW,205,5.0,12.0,91,0.00,,,0.19,Wunderground v.1.15,2013-04-19 05:07:00,
2013-04-18 22:12:00,49.4,46.9,30.32,SSE,159,1.0,12.0,91,0.00,,,0.19,Wunderground v.1.15,2013-04-19 05:12:00,
2013-04-18 22:17:00,49.4,46.9,30.32,SW,217,8.0,12.0,91,0.00,,,0.19,Wunderground v.1.15,2013-04-19 05:17:00,
2013-04-18 22:22:00,49.5,46.7,30.32,SSW,209,4.0,9.0,90,0.00,,,0.19,Wunderground v.1.15,2013-04-19 05:22:00,
2013-04-18 22:27:00,49.5,46.7,30.32,SSW,196,5.0,12.0,90,0.00,,,0.19,Wunderground v.1.15,2013-04-19 05:27:00,
2013-04-18 22:32:00,49.6,46.8,30.31,South,174,1.0,11.0,90,0.00,,,0.19,Wunderground v.1.15,2013-04-19 05:32:00,
2013-04-18 22:37:00,49.6,46.8,30.31,SSE,157,4.0,11.0,90,0.00,,,0.19,Wunderground v.1.15,2013-04-19 05:37:00,
2013-04-18 22:42:00,49.6,46.8,30.30,SSE,161,5.0,9.0,90,0.00,,,0.19,Wunderground v.1.15,2013-04-19 05:42:00,
2013-04-18 22:47:00,49.6,46.8,30.30,WSW,251,6.0,13.0,90,0.00,,,0.19,Wunderground v.1.15,2013-04-19 05:47:00,
2013-04-18 22:52:00,49.5,46.7,30.30,SW,219,4.0,11.0,90,0.00,,,0.19,Wunderground v.1.15,2013-04-19 05:52:00,
2013-04-18 22:57:00,49.5,46.7,30.30,SE,140,4.0,14.0,90,0.00,,,0.19,Wunderground v.1.15,2013-04-19 05:57:00,
2013-04-18 23:02:00,49.5,46.7,30.30,WSW,237,4.0,9.0,90,0.00,,,0.20,Wunderground v.1.15,2013-04-19 06:02:00,
2013-04-18 23:07:00,49.5,46.7,30.29,SSW,209,3.0,11.0,90,0.00,,,0.20,Wunderground v.1.15,2013-04-19 06:07:00,
2013-04-18 23:12:00,49.5,46.7,30.29,SSE,166,5.0,11.0,90,0.00,,,0.20,Wunderground v.1.15,2013-04-19 06:12:00,
2013-04-18 23:17:00,49.5,46.7,30.29,SSW,207,1.0,18.0,90,0.00,,,0.20,Wunderground v.1.15,2013-04-19 06:17:00,
2013-04-18 23:22:00,49.5,46.7,30.28,SSW,204,3.0,12.0,90,0.00,,,0.20,Wunderground v.1.15,2013-04-19 06:22:00,
2013-04-18 23:27:00,49.5,46.7,30.28,SSW,192,6.0,15.0,90,0.00,,,0.20,Wunderground v.1.15,2013-04-19 06:27:00,
2013-04-18 23:32:00,49.5,46.7,30.28,SW,215,4.0,11.0,90,0.00,,,0.21,Wunderground v.1.15,2013-04-19 06:32:00,
2013-04-18 23:37:00,49.4,46.6,30.28,South,175,6.0,16.0,90,0.00,,,0.21,Wunderground v.1.15,2013-04-19 06:37:00,
2013-04-18 23:42:00,49.4,46.6,30.28,SSE,151,2.0,15.0,90,0.00,,,0.21,Wunderground v.1.15,2013-04-19 06:42:00,
2013-04-18 23:47:00,49.4,46.6,30.27,SW,229,3.0,15.0,90,0.04,,,0.22,Wunderground v.1.15,2013-04-19 06:47:00,
2013-04-18 23:52:00,49.4,46.6,30.28,South,189,3.0,10.0,90,0.04,,,0.22,Wunderground v.1.15,2013-04-19 06:52:00,
2013-04-18 23:57:00,49.3,46.5,30.27,SE,144,5.0,13.0,90,0.05,,,0.23,Wunderground v.1.15,2013-04-19 06:57:00,